When you browse on this site, cookies collect data to enhance your experience and personalize the content and advertising you see.
Visit our Privacy Policy to learn more. By continuing to use the site, you agree to this use of cookies and data.
  • In Sweden
  • List of Countries
  • For 7 days
  • Water Temperature
  • Weather Map
  • Weather Widgets
  • user-avatar
    Login

    Hourly Weather Dolina

    Today, 6 December, Friday

    Time Temperature Precipitation Wind Pressure Humidity
    00:00 0°C° 0 mm 3 mps 725 mmHg 55%
    01:00 0°C° 0 mm 3 mps 725 mmHg 54%
    02:00 0°C° 0 mm 1 mps 724 mmHg 53%
    03:00 +1°C° 0 mm 1 mps 723 mmHg 50%
    04:00 -1°C° 0 mm 2 mps 723 mmHg 50%
    05:00 -1°C° 0 mm 3 mps 723 mmHg 59%
    06:00 -2°C° 0 mm 5 mps 722 mmHg 56%
    07:00 -2°C° 0 mm 8 mps 722 mmHg 55%
    08:00 -1°C° 0 mm 8 mps 722 mmHg 54%
    09:00 -2°C° 0 mm 6 mps 722 mmHg 55%
    10:00 0°C° 0 mm 3 mps 722 mmHg 56%
    11:00 +1°C° 0 mm 2 mps 722 mmHg 63%
    12:00 0°C° 0 mm 3 mps 722 mmHg 66%
    13:00 0°C° 0 mm 3 mps 722 mmHg 71%
    14:00 +1°C° 0 mm 2 mps 722 mmHg 67%
    15:00 +2°C° 0 mm 2 mps 722 mmHg 64%
    16:00 +1°C° 0 mm 2 mps 721 mmHg 63%
    17:00 +1°C° 0 mm 2 mps 721 mmHg 62%
    18:00 +1°C° 0 mm 2 mps 720 mmHg 61%
    19:00 0°C° 0 mm 3 mps 721 mmHg 63%
    20:00 -1°C° 0 mm 4 mps 720 mmHg 65%
    21:00 -1°C° 0 mm 5 mps 720 mmHg 67%
    22:00 -1°C° 0 mm 5 mps 720 mmHg 71%
    23:00 -2°C° 0 mm 6 mps 719 mmHg 74%

    Tomorrow, 7 December, Saturday

    Time Temperature Precipitation Wind Pressure Humidity
    00:00 -2°C° 0 mm 7 mps 719 mmHg 76%
    01:00 -2°C° 0 mm 8 mps 719 mmHg 79%
    02:00 -2°C° 0 mm 8 mps 719 mmHg 80%
    03:00 -2°C° 0 mm 7 mps 719 mmHg 80%
    04:00 -2°C° 0 mm 7 mps 718 mmHg 80%
    05:00 -2°C° 0 mm 8 mps 718 mmHg 80%
    06:00 -3°C° 0 mm 9 mps 717 mmHg 80%
    07:00 -1°C° 0 mm 9 mps 717 mmHg 78%
    08:00 -1°C° 0 mm 9 mps 718 mmHg 77%
    09:00 0°C° 0 mm 9 mps 718 mmHg 76%
    10:00 +1°C° 0 mm 9 mps 717 mmHg 75%
    11:00 +2°C° 0 mm 10 mps 717 mmHg 75%
    12:00 +2°C° 0 mm 10 mps 717 mmHg 75%
    13:00 +3°C° 0 mm 9 mps 717 mmHg 76%
    14:00 +4°C° 0 mm 7 mps 717 mmHg 79%
    15:00 +4°C° 0 mm 4 mps 717 mmHg 80%
    16:00 +3°C° 0 mm 4 mps 717 mmHg 85%
    17:00 +2°C° 0 mm 5 mps 717 mmHg 89%
    18:00 +2°C° 0 mm 6 mps 717 mmHg 90%
    19:00 0°C° 0 mm 7 mps 718 mmHg 91%
    20:00 +1°C° 0 mm 6 mps 718 mmHg 92%
    21:00 -1°C° 0 mm 6 mps 718 mmHg 92%
    22:00 -1°C° 0 mm 6 mps 718 mmHg 91%
    23:00 -1°C° 0 mm 6 mps 718 mmHg 89%

    Day after tomorrow, 8 December, Sunday

    Time Temperature Precipitation Wind Pressure Humidity
    00:00 -1°C° 0 mm 6 mps 718 mmHg 88%
    01:00 -1°C° 0 mm 6 mps 719 mmHg 88%
    02:00 -1°C° 0 mm 5 mps 719 mmHg 89%
    03:00 -1°C° 0 mm 5 mps 719 mmHg 89%
    04:00 -1°C° 0 mm 5 mps 718 mmHg 90%
    05:00 -1°C° 0 mm 5 mps 718 mmHg 90%
    06:00 -1°C° 0 mm 5 mps 718 mmHg 90%
    07:00 -1°C° 0 mm 5 mps 719 mmHg 90%
    08:00 -1°C° 0 mm 5 mps 719 mmHg 90%
    09:00 0°C° 0 mm 5 mps 720 mmHg 90%
    10:00 +1°C° 0 mm 5 mps 720 mmHg 87%
    11:00 +2°C° 0 mm 5 mps 720 mmHg 84%
    12:00 +3°C° 0 mm 5 mps 720 mmHg 83%
    13:00 +3°C° 0 mm 6 mps 720 mmHg 82%
    14:00 +3°C° 0 mm 6 mps 720 mmHg 83%
    15:00 +2°C° 0 mm 5 mps 719 mmHg 85%
    16:00 +1°C° 0 mm 5 mps 718 mmHg 87%
    17:00 0°C° 0 mm 5 mps 718 mmHg 89%
    18:00 -1°C° 0 mm 6 mps 718 mmHg 88%
    19:00 -1°C° 0 mm 7 mps 717 mmHg 87%
    20:00 -1°C° 0 mm 7 mps 717 mmHg 87%
    21:00 -1°C° 0 mm 6 mps 717 mmHg 88%
    22:00 -1°C° 0 mm 8 mps 717 mmHg 88%
    23:00 0°C° 0 mm 9 mps 716 mmHg 88%

    9 December, Monday

    Time Temperature Precipitation Wind Pressure Humidity
    00:00 0°C° 0 mm 9 mps 716 mmHg 89%
    01:00 0°C° 0 mm 9 mps 715 mmHg 88%
    02:00 +1°C° 0 mm 11 mps 714 mmHg 87%
    03:00 0°C° 0 mm 12 mps 714 mmHg 87%
    04:00 +1°C° 0 mm 10 mps 714 mmHg 86%
    05:00 +1°C° 0 mm 9 mps 714 mmHg 85%
    06:00 +1°C° 0 mm 8 mps 713 mmHg 86%
    07:00 +2°C° 0 mm 6 mps 714 mmHg 86%
    08:00 +2°C° 0 mm 5 mps 714 mmHg 87%
    09:00 +3°C° 0 mm 6 mps 713 mmHg 87%
    10:00 +2°C° 0 mm 8 mps 713 mmHg 86%
    11:00 +3°C° 0 mm 9 mps 712 mmHg 84%
    12:00 +5°C° 0 mm 8 mps 713 mmHg 82%
    13:00 +5°C° 0 mm 6 mps 712 mmHg 80%
    14:00 +6°C° 0 mm 4 mps 712 mmHg 79%
    15:00 +6°C° 0 mm 4 mps 712 mmHg 80%
    16:00 +6°C° 0 mm 2 mps 712 mmHg 84%
    17:00 +7°C° 0 mm 1 mps 712 mmHg 85%
    18:00 +6°C° 0 mm 1 mps 712 mmHg 90%
    19:00 +6°C° 0 mm 1 mps 712 mmHg 96%
    20:00 +6°C° 0 mm 1 mps 711 mmHg 100%
    21:00 +6°C° 0 mm 1 mps 711 mmHg 100%
    22:00 +6°C° 0 mm 1 mps 710 mmHg 100%
    23:00 +5°C° 0 mm 0 mps 710 mmHg 100%

    10 December, Tuesday

    Time Temperature Precipitation Wind Pressure Humidity
    00:00 +4°C° 0 mm 0 mps 710 mmHg 100%
    01:00 +3°C° 0 mm 0 mps 709 mmHg 100%
    02:00 +4°C° 0 mm 1 mps 709 mmHg 100%

    11 December, Wednesday

    Time Temperature Precipitation Wind Pressure Humidity
    Show more